FENGYUN 1C DEB, 37415

Orbit data source: Space-Track

FENGYUN 1C DEB, 37415 is space debris in SSO originally from a launch on Mon, 10 May 1999 UTC launched from the Taiyaun Space Center, China (TSC). Fengyun 1C debris stems from the Chinese weather satellite Fengyun-1C, which was intentionally destroyed by a Chinese anti-satellite missile in 2007. This event dramatically increased the amount of space debris, with thousands of trackable fragments posing hazards to satellites and human spaceflight. The Fengyun 1C debris cloud has become a focal point in discussions about space sustainability and the need for international regulations to prevent the creation of new debris.

Loading next visibility...
Identifier
37415, 1999-025EGH
Orbit
SSO
Country
Flag of CNCN / PRC
Related business
Manufacturer
Unknown
Mission
Spacecraft
Bus & Motor
Unknown
Mass
Unknown
Launch date (UTC)
1999-05-10 (27 years ago)
Launch vehicle
Unknown
Launch site
Taiyaun Space Center, China (TSC)
Object type
Payload
Rocket body
Debris
Shape & HBR
Unknown shape, 0.1 m
Radar Cross Section
Small (<0.1 m²)

Expand to show TLE details & history
Last TLE update: 23 hours ago

TLE from 23 hours ago
0 FENGYUN 1C DEB
1 37415U 99025EGH 26150.48442507  .00000271  00000-0  36128-3 0  9996
2 37415  98.9837 247.5848 0285687 111.6960 251.4852 13.52201165646025
Epoch: 2026-05-30T11:37Z
TLE epoch observation values (Epoch: 2026-05-30T11:37:34.326Z)
Latitude
-0.00005°
Longitude
-174.80801°
Altitude
1,139.904 km
Speed
7.247 km/s
True Right ascension
16h 30m 20s
True Declination
0° 00' 00"
Sunlit
Object was in full shadow at epoch
Visualization orbit readout
Latitude
Unknown
Longitude
Unknown
Altitude
Unknown
Speed
Unknown
Apparent Right ascension
Unknown
Apparent Declination
Unknown
Sunlit
N/A
Visualization observer readout
Local Sidereal Time
19:48:11
Azimuth
Unknown
Elevation
Unknown
Doppler factor
Unknown
Orbital elements
Apogee altitude
1,273.969 km
Perigee altitude
848.892 km
Semi-major axis
7,439.568 km
Eccentricity
0.02857
Inclination
98.9837°
RAAN
247.5848°
Arg. of periapsis
111.696°
True anomaly
248.4172°
Mean anomaly
251.4852°
Eccentric anomaly
249.94756°
Mean motion
3.38237 °/min
Orbital period
106.43 mins
BSTAR
0.00036128
Loading maneuver chart data...
Computing Atmospheric mass density...
Loading historical data...
Loading historical data...
Loading historical data...
Loading historical data...
Loading historical data...
Loading historical data...
Loading historical data...

Documentation

Showing up to 5 results
|